COSMOS 1275 DEB, 12751

Orbit data source: Space-Track

COSMOS 1275 DEB, 12751 is space debris in LEO originally from a launch on Thu, 04 Jun 1981 UTC launched from the Plesetsk Missile And Space Complex (PKMTR). Debris objects in space refer to the collection of defunct objects orbiting the Earth. Examples of debris include non-operational satellites, rocket bodies, and fragments generated from explosions, collisions, or faulty payload assembly.

Loading next visibility...
Identifier
12751, 1981-053CU
Orbit
LEO
Country
Flag of CISCIS
Related business
Manufacturer
Unknown
Mission
Spacecraft
Bus & Motor
Unknown
Mass
Unknown
Launch date (UTC)
1981-06-04 (45 years ago)
Launch vehicle
Unknown
Launch site
Plesetsk Missile And Space Complex (PKMTR)
Object type
Payload
Rocket body
Debris
Shape & HBR
Unknown shape, 0.3 m
Radar Cross Section
Medium (>0.1 m² and <1 m²)

Expand to show TLE details & history
Last TLE update: 8 hours ago

TLE from 8 hours ago
0 COSMOS 1275 DEB
1 12751U 81053CU  26119.60724720  .00000292  00000-0  25957-3 0  9994
2 12751  82.9450 213.2751 0029551  78.2560 349.8716 13.81374371249389
Epoch: 2026-04-29T14:34Z
TLE epoch observation values (Epoch: 2026-04-29T14:34:26.158Z)
Latitude
67.09611°
Longitude
154.0418°
Altitude
949.28 km
Speed
7.394 km/s
True Right ascension
15h 20m 51s
True Declination
66° 58' 33"
Sunlit
Object was in daylight at epoch
Visualization orbit readout
Latitude
Unknown
Longitude
Unknown
Altitude
Unknown
Speed
Unknown
Apparent Right ascension
Unknown
Apparent Declination
Unknown
Sunlit
N/A
Visualization observer readout
Local Sidereal Time
05:43:53
Azimuth
Unknown
Elevation
Unknown
Doppler factor
Unknown
Orbital elements
Apogee altitude
977.829 km
Perigee altitude
934.482 km
Semi-major axis
7,334.293 km
Eccentricity
0.00296
Inclination
82.945°
RAAN
213.2751°
Arg. of periapsis
78.256°
True anomaly
349.81183°
Mean anomaly
349.8716°
Eccentric anomaly
349.84174°
Mean motion
3.45546 °/min
Orbital period
104.18 mins
BSTAR
0.00025957
Loading maneuver chart data...
Computing Atmospheric mass density...
Loading historical data...
Loading historical data...
Loading historical data...
Loading historical data...
Loading historical data...
Loading historical data...
Loading historical data...

Documentation

Showing up to 5 results
|